Regional Weather Roundup
Issued by NWS

Home | Current Version | Previous Version | Text Only | Print | Product List | Glossary Off
Versions: 1 2 3 4 5 6 7 8 9 10 11 12 13 14 15 16 17 18 19 20 21 22 23 24 25 26 27 28 29 30 31 32 33 34 35 36 37 38 39 40 41 42 43 44 45 46 47 48 49 50

268
ASUS45 KCYS 160010
RWRWY

WYOMING REGIONAL WEATHER ROUNDUP
NATIONAL WEATHER SERVICE CHEYENNE WY
600 PM MDT TUE AUG 15 2017

NOTE:  "FAIR" INDICATES FEW OR NO CLOUDS BELOW 12,000 FEET
WITH NO SIGNIFICANT WEATHER AND/OR OBSTRUCTIONS TO VISIBILITY.

WYZ001-160100-
YELLOWSTONE NATIONAL PARK

CITY           SKY/WX    TMP DP  RH WIND       PRES   REMARKS
LK YELLOWSTONE   N/A     59  38  45 VRB5      30.14S
6HR MIN TEMP:  54; 6HR MAX TEMP:  61;

W YELLOWSTONE  NOT AVBL

$$
WYZ002>013-054>058-071-098>099-160100-
NORTHERN WYOMING

CITY           SKY/WX    TMP DP  RH WIND       PRES   REMARKS
JACKSON        FAIR      68  38  33 VRB6      30.05R
CODY           FAIR      67  46  47 CALM      29.99S
GREYBULL       FAIR      77  43  29 S5        29.90S
6HR MIN TEMP:  67; 6HR MAX TEMP:  77;

WORLAND        FAIR      73  46  38 NE5       29.93S
6HR MIN TEMP:  63; 6HR MAX TEMP:  75;

SHERIDAN       FAIR      73  43  33 E3        29.95S
6HR MIN TEMP:  64; 6HR MAX TEMP:  75; 6HR PCP: TRACE;

BUFFALO        FAIR      67  41  38 N8        30.01R
6HR MIN TEMP:  61; 6HR MAX TEMP:  69; 6HR PCP:  0.02;

GILLETTE       FAIR      69  50  50 N12       29.96S
6HR MIN TEMP:  61; 6HR MAX TEMP:  69;

HULETT         CLOUDY    64  55  72 N7        29.97R
NEWCASTLE      FAIR      68  50  52 NW9       29.92F

$$
WYZ014>020-022>026-101>103-160100-
CENTRAL WYOMING

CITY           SKY/WX    TMP DP  RH WIND       PRES   REMARKS
BIG PINEY      FAIR      70  39  32 N15       30.07R
6HR MIN TEMP:  57; 6HR MAX TEMP:  71; 6HR PCP: TRACE;

PINEDALE       FAIR      64  36  34 NW10      30.08S
DUBOIS         FAIR      55  43  62 E9        30.11R
LANDER           N/A    N/A N/A N/A MISG      30.06R
RIVERTON       PTSUNNY   68  47  46 W14       30.02R
6HR MIN TEMP:  65; 6HR MAX TEMP:  71;

CASPER         FAIR      63  52  67 N12       30.01R
6HR MIN TEMP:  62; 6HR MAX TEMP:  72; 6HR PCP: TRACE;

DOUGLAS        LGT RAIN  58  54  86 SE7       30.00R
6HR MIN TEMP:  58; 6HR MAX TEMP:  73; 6HR PCP:  0.31;


$$
WYZ021-027>030-104>119-160100-
SOUTHERN WYOMING

CITY           SKY/WX    TMP DP  RH WIND       PRES   REMARKS
EVANSTON       FAIR      72  23  16 NW12G18   30.08R
6HR MIN TEMP:  61; 6HR MAX TEMP:  74;

KEMMERER         N/A     68  32  26 NW8G17    30.09S
FORT BRIDGER   MOCLDY    71  33  24 N6        30.09S
ROCK SPRINGS   FAIR      65  47  52 S17       30.07S
6HR MIN TEMP:  62; 6HR MAX TEMP:  67;

RAWLINS        FAIR      54  46  74 SW24G33   30.09F
6HR MIN TEMP:  50; 6HR MAX TEMP:  72; 6HR PCP:  0.25;

SARATOGA       CLOUDY    52  52 100 S13       30.17S
LARAMIE        PTSUNNY   54  45  71 N18       30.11R
6HR MIN TEMP:  52; 6HR MAX TEMP:  72; 6HR PCP:  0.09;

CHEYENNE       FAIR      64  46  52 NW26G38   30.02R
6HR MIN TEMP:  58; 6HR MAX TEMP:  79; 6HR PCP: TRACE;

TORRINGTON     FAIR      64  60  87 N9        29.88R
6HR MIN TEMP:  62; 6HR MAX TEMP:  81; 6HR PCP:  0.06;

PINE BLUFFS    LGT RAIN  57  54  88 N9        29.96F

$$




USA.gov is the U.S. government's official web portal to all federal, state and local government web resources and services.